Year,Month,Day,Hour,Minute,Value (Times are PST for temperature in C)
2007,06,02,00,00,14.50
2007,06,02,00,01,14.50
2007,06,02,00,02,14.50
2007,06,02,00,03,14.50
2007,06,02,00,04,14.50
2007,06,02,00,05,14.40
2007,06,02,00,06,14.50
2007,06,02,00,07,14.50
2007,06,02,00,08,14.50
2007,06,02,00,09,14.40
2007,06,02,00,10,14.40
2007,06,02,00,11,14.40
2007,06,02,00,12,14.40
2007,06,02,00,13,14.40
2007,06,02,00,14,14.40
2007,06,02,00,15,14.40
2007,06,02,00,16,14.30
2007,06,02,00,17,14.30
2007,06,02,00,18,14.30
2007,06,02,00,19,14.30
2007,06,02,00,20,14.20
2007,06,02,00,21,14.20
2007,06,02,00,22,14.20
2007,06,02,00,23,14.20
2007,06,02,00,24,14.20
2007,06,02,00,25,14.20
2007,06,02,00,26,14.20
2007,06,02,00,27,14.20
2007,06,02,00,28,14.10
2007,06,02,00,29,14.10
2007,06,02,00,30,14.10
2007,06,02,00,31,14.10
2007,06,02,00,32,14.10
2007,06,02,00,33,14.00
2007,06,02,00,34,14.00
2007,06,02,00,35,14.00
2007,06,02,00,36,14.00
2007,06,02,00,37,14.00
2007,06,02,00,38,13.90
2007,06,02,00,39,13.90
2007,06,02,00,40,13.90
2007,06,02,00,41,13.90
2007,06,02,00,42,13.90
2007,06,02,00,43,13.90
2007,06,02,00,44,13.90
2007,06,02,00,45,13.90
2007,06,02,00,46,13.90
2007,06,02,00,47,13.90
2007,06,02,00,48,13.90
2007,06,02,00,49,13.90
2007,06,02,00,50,13.90
2007,06,02,00,51,13.90
2007,06,02,00,52,13.90
2007,06,02,00,53,13.90
2007,06,02,00,54,13.90
2007,06,02,00,55,13.90
2007,06,02,00,56,13.90
2007,06,02,00,57,13.90
2007,06,02,00,58,13.90
2007,06,02,00,59,13.90
2007,06,02,01,00,13.90
2007,06,02,01,01,13.90
2007,06,02,01,02,13.90
2007,06,02,01,03,13.90
2007,06,02,01,04,13.80
2007,06,02,01,05,13.80
2007,06,02,01,06,13.80
2007,06,02,01,07,13.70
2007,06,02,01,08,13.70
2007,06,02,01,09,13.70
2007,06,02,01,10,13.70
2007,06,02,01,11,13.70
2007,06,02,01,12,13.70
2007,06,02,01,13,13.70
2007,06,02,01,14,13.70
2007,06,02,01,15,13.70
2007,06,02,01,16,13.70
2007,06,02,01,17,13.70
2007,06,02,01,18,13.70
2007,06,02,01,19,13.70
2007,06,02,01,20,13.70
2007,06,02,01,21,13.70
2007,06,02,01,22,13.70
2007,06,02,01,23,13.70
2007,06,02,01,24,13.70
2007,06,02,01,25,13.70
2007,06,02,01,26,13.70
2007,06,02,01,27,13.70
2007,06,02,01,28,13.70
2007,06,02,01,29,13.70
2007,06,02,01,30,13.70
2007,06,02,01,31,13.70
2007,06,02,01,32,13.70
2007,06,02,01,33,13.70
2007,06,02,01,34,13.70
2007,06,02,01,35,13.70
2007,06,02,01,36,13.70
2007,06,02,01,37,13.70
2007,06,02,01,38,13.70
2007,06,02,01,39,13.70
2007,06,02,01,40,13.70
2007,06,02,01,41,13.70
2007,06,02,01,42,13.70
2007,06,02,01,43,13.70
2007,06,02,01,44,13.70
2007,06,02,01,45,13.70
2007,06,02,01,46,13.70
2007,06,02,01,47,13.70
2007,06,02,01,48,13.70
2007,06,02,01,49,13.70
2007,06,02,01,50,13.70
2007,06,02,01,51,13.70
2007,06,02,01,52,13.70
2007,06,02,01,53,13.70
2007,06,02,01,54,13.70
2007,06,02,01,55,13.70
2007,06,02,01,56,13.70
2007,06,02,01,57,13.70
2007,06,02,01,58,13.70
2007,06,02,01,59,13.70
2007,06,02,02,00,13.70
2007,06,02,02,01,13.70
2007,06,02,02,02,13.70
2007,06,02,02,03,13.70
2007,06,02,02,04,13.70
2007,06,02,02,05,13.70
2007,06,02,02,06,13.70
2007,06,02,02,07,13.70
2007,06,02,02,08,13.70
2007,06,02,02,09,13.60
2007,06,02,02,10,13.60
2007,06,02,02,11,13.60
2007,06,02,02,12,13.60
2007,06,02,02,13,13.50
2007,06,02,02,14,13.50
2007,06,02,02,15,13.50
2007,06,02,02,16,13.50
2007,06,02,02,17,13.40
2007,06,02,02,18,13.40
2007,06,02,02,19,13.30
2007,06,02,02,20,13.30
2007,06,02,02,21,13.30
2007,06,02,02,22,13.30
2007,06,02,02,23,13.30
2007,06,02,02,24,13.20
2007,06,02,02,25,13.20
2007,06,02,02,26,13.10
2007,06,02,02,27,13.10
2007,06,02,02,28,13.10
2007,06,02,02,29,13.00
2007,06,02,02,30,13.00
2007,06,02,02,31,13.00
2007,06,02,02,32,13.00
2007,06,02,02,33,12.90
2007,06,02,02,34,12.90
2007,06,02,02,35,12.90
2007,06,02,02,36,12.90
2007,06,02,02,37,12.90
2007,06,02,02,38,12.80
2007,06,02,02,39,12.80
2007,06,02,02,40,12.80
2007,06,02,02,41,12.80
2007,06,02,02,42,12.80
2007,06,02,02,43,12.80
2007,06,02,02,44,12.80
2007,06,02,02,45,12.80
2007,06,02,02,46,12.70
2007,06,02,02,47,12.70
2007,06,02,02,48,12.70
2007,06,02,02,49,12.70
2007,06,02,02,50,12.60
2007,06,02,02,51,12.60
2007,06,02,02,52,12.60
2007,06,02,02,53,12.50
2007,06,02,02,54,12.50
2007,06,02,02,55,12.50
2007,06,02,02,56,12.50
2007,06,02,02,57,12.40
2007,06,02,02,58,12.40
2007,06,02,02,59,12.40
2007,06,02,03,00,12.40
2007,06,02,03,01,12.40
2007,06,02,03,02,12.30
2007,06,02,03,03,12.30
2007,06,02,03,04,12.30
2007,06,02,03,05,12.30
2007,06,02,03,06,12.30
2007,06,02,03,07,12.30
2007,06,02,03,08,12.30
2007,06,02,03,09,12.30
2007,06,02,03,10,12.30
2007,06,02,03,11,12.30
2007,06,02,03,12,12.30
2007,06,02,03,13,12.30
2007,06,02,03,14,12.30
2007,06,02,03,15,12.30
2007,06,02,03,16,12.30
2007,06,02,03,17,12.30
2007,06,02,03,18,12.20
2007,06,02,03,19,12.20
2007,06,02,03,20,12.20
2007,06,02,03,21,12.20
2007,06,02,03,22,12.20
2007,06,02,03,23,12.20
2007,06,02,03,24,12.10
2007,06,02,03,25,12.10
2007,06,02,03,26,12.10
2007,06,02,03,27,12.10
2007,06,02,03,28,12.10
2007,06,02,03,29,12.10
2007,06,02,03,30,12.00
2007,06,02,03,31,12.00
2007,06,02,03,32,12.00
2007,06,02,03,33,12.00
2007,06,02,03,34,12.00
2007,06,02,03,35,12.00
2007,06,02,03,36,12.00
2007,06,02,03,37,12.00
2007,06,02,03,38,12.00
2007,06,02,03,39,12.00
2007,06,02,03,40,11.90
2007,06,02,03,41,11.90
2007,06,02,03,42,11.90
2007,06,02,03,43,11.90
2007,06,02,03,44,11.80
2007,06,02,03,45,11.80
2007,06,02,03,46,11.80
2007,06,02,03,47,11.80
2007,06,02,03,48,11.80
2007,06,02,03,49,11.80
2007,06,02,03,50,11.80
2007,06,02,03,51,11.80
2007,06,02,03,52,11.80
2007,06,02,03,53,11.70
2007,06,02,03,54,11.70
2007,06,02,03,55,11.70
2007,06,02,03,56,11.70
2007,06,02,03,57,11.70
2007,06,02,03,58,11.70
2007,06,02,03,59,11.70
2007,06,02,04,00,11.70
2007,06,02,04,01,11.70
2007,06,02,04,02,11.70
2007,06,02,04,03,11.70
2007,06,02,04,04,11.70
2007,06,02,04,05,11.70
2007,06,02,04,06,11.70
2007,06,02,04,07,11.70
2007,06,02,04,08,11.70
2007,06,02,04,09,11.70
2007,06,02,04,10,11.60
2007,06,02,04,11,11.60
2007,06,02,04,12,11.60
2007,06,02,04,13,11.60
2007,06,02,04,14,11.60
2007,06,02,04,15,11.60
2007,06,02,04,16,11.60
2007,06,02,04,17,11.60
2007,06,02,04,18,11.60
2007,06,02,04,19,11.60
2007,06,02,04,20,11.60
2007,06,02,04,21,11.60
2007,06,02,04,22,11.60
2007,06,02,04,23,11.60
2007,06,02,04,24,11.60
2007,06,02,04,25,11.70
2007,06,02,04,26,11.70
2007,06,02,04,27,11.70
2007,06,02,04,28,11.70
2007,06,02,04,29,11.70
2007,06,02,04,30,11.70
2007,06,02,04,31,11.70
2007,06,02,04,32,11.70
2007,06,02,04,33,11.70
2007,06,02,04,34,11.70
2007,06,02,04,35,11.70
2007,06,02,04,36,11.70
2007,06,02,04,37,11.70
2007,06,02,04,38,11.70
2007,06,02,04,39,11.70
2007,06,02,04,40,11.70
2007,06,02,04,41,11.70
2007,06,02,04,42,11.70
2007,06,02,04,43,11.70
2007,06,02,04,44,11.70
2007,06,02,04,45,11.70
2007,06,02,04,46,11.60
2007,06,02,04,47,11.60
2007,06,02,04,48,11.60
2007,06,02,04,49,11.60
2007,06,02,04,50,11.60
2007,06,02,04,51,11.60
2007,06,02,04,52,11.60
2007,06,02,04,53,11.60
2007,06,02,04,54,11.60
2007,06,02,04,55,11.60
2007,06,02,04,56,11.60
2007,06,02,04,57,11.60
2007,06,02,04,58,11.60
2007,06,02,04,59,11.60
2007,06,02,05,00,11.60
2007,06,02,05,01,11.50
2007,06,02,05,02,11.40
2007,06,02,05,03,11.40
2007,06,02,05,04,11.40
2007,06,02,05,05,11.40
2007,06,02,05,06,11.40
2007,06,02,05,07,11.40
2007,06,02,05,08,11.40
2007,06,02,05,09,11.40
2007,06,02,05,10,11.40
2007,06,02,05,11,11.40
2007,06,02,05,12,11.40
2007,06,02,05,13,11.40
2007,06,02,05,14,11.40
2007,06,02,05,15,11.30
2007,06,02,05,16,11.30
2007,06,02,05,17,11.30
2007,06,02,05,18,11.30
2007,06,02,05,19,11.30
2007,06,02,05,20,11.30
2007,06,02,05,21,11.30
2007,06,02,05,22,11.30
2007,06,02,05,23,11.30
2007,06,02,05,24,11.20
2007,06,02,05,25,11.20
2007,06,02,05,26,11.20
2007,06,02,05,27,11.20
2007,06,02,05,28,11.20
2007,06,02,05,29,11.20
2007,06,02,05,30,11.20
2007,06,02,05,31,11.20
2007,06,02,05,32,11.20
2007,06,02,05,33,11.20
2007,06,02,05,34,11.20
2007,06,02,05,35,11.20
2007,06,02,05,36,11.20
2007,06,02,05,37,11.20
2007,06,02,05,38,11.20
2007,06,02,05,39,11.20
2007,06,02,05,40,11.20
2007,06,02,05,41,11.20
2007,06,02,05,42,11.20
2007,06,02,05,43,11.20
2007,06,02,05,44,11.20
2007,06,02,05,45,11.20
2007,06,02,05,46,11.20
2007,06,02,05,47,11.20
2007,06,02,05,48,11.30
2007,06,02,05,49,11.30
2007,06,02,05,50,11.30
2007,06,02,05,51,11.30
2007,06,02,05,52,11.30
2007,06,02,05,53,11.30
2007,06,02,05,54,11.30
2007,06,02,05,55,11.40
2007,06,02,05,56,11.40
2007,06,02,05,57,11.40
2007,06,02,05,58,11.40
2007,06,02,05,59,11.40
2007,06,02,06,00,11.50
2007,06,02,06,01,11.60
2007,06,02,06,02,11.60
2007,06,02,06,03,11.60
2007,06,02,06,04,11.60
2007,06,02,06,05,11.60
2007,06,02,06,06,11.60
2007,06,02,06,07,11.60
2007,06,02,06,08,11.60
2007,06,02,06,09,11.60
2007,06,02,06,10,11.60
2007,06,02,06,11,11.60
2007,06,02,06,12,11.60
2007,06,02,06,13,11.60
2007,06,02,06,14,11.60
2007,06,02,06,15,11.60
2007,06,02,06,16,11.70
2007,06,02,06,17,11.70
2007,06,02,06,18,11.70
2007,06,02,06,19,11.70
2007,06,02,06,20,11.70
2007,06,02,06,21,11.70
2007,06,02,06,22,11.70
2007,06,02,06,23,11.70
2007,06,02,06,24,11.70
2007,06,02,06,25,11.70
2007,06,02,06,26,11.70
2007,06,02,06,27,11.70
2007,06,02,06,28,11.70
2007,06,02,06,29,11.70
2007,06,02,06,30,11.80
2007,06,02,06,31,11.80
2007,06,02,06,32,11.80
2007,06,02,06,33,11.80
2007,06,02,06,34,11.80
2007,06,02,06,35,11.80
2007,06,02,06,36,11.80
2007,06,02,06,37,11.80
2007,06,02,06,38,11.90
2007,06,02,06,39,11.90
2007,06,02,06,40,11.90
2007,06,02,06,41,12.00
2007,06,02,06,42,12.00
2007,06,02,06,43,12.00
2007,06,02,06,44,12.10
2007,06,02,06,45,12.10
2007,06,02,06,46,12.20
2007,06,02,06,47,12.20
2007,06,02,06,48,12.30
2007,06,02,06,49,12.30
2007,06,02,06,50,12.30
2007,06,02,06,51,12.30
2007,06,02,06,52,12.40
2007,06,02,06,53,12.40
2007,06,02,06,54,12.40
2007,06,02,06,55,12.40
2007,06,02,06,56,12.50
2007,06,02,06,57,12.50
2007,06,02,06,58,12.50
2007,06,02,06,59,12.60
2007,06,02,07,00,12.60
2007,06,02,07,01,12.70
2007,06,02,07,02,12.80
2007,06,02,07,03,12.80
2007,06,02,07,04,12.80
2007,06,02,07,05,12.90
2007,06,02,07,06,13.00
2007,06,02,07,07,13.00
2007,06,02,07,08,13.10
2007,06,02,07,09,13.10
2007,06,02,07,10,13.10
2007,06,02,07,11,13.20
2007,06,02,07,12,13.20
2007,06,02,07,13,13.20
2007,06,02,07,14,13.30
2007,06,02,07,15,13.30
2007,06,02,07,16,13.30
2007,06,02,07,17,13.30
2007,06,02,07,18,13.30
2007,06,02,07,19,13.30
2007,06,02,07,20,13.30
2007,06,02,07,21,13.40
2007,06,02,07,22,13.40
2007,06,02,07,23,13.40
2007,06,02,07,24,13.40
2007,06,02,07,25,13.50
2007,06,02,07,26,13.50
2007,06,02,07,27,13.50
2007,06,02,07,28,13.60
2007,06,02,07,29,13.60
2007,06,02,07,30,13.60
2007,06,02,07,31,13.70
2007,06,02,07,32,13.70
2007,06,02,07,33,13.70
2007,06,02,07,34,13.80
2007,06,02,07,35,13.80
2007,06,02,07,36,13.90
2007,06,02,07,37,13.90
2007,06,02,07,38,14.00
2007,06,02,07,39,14.10
2007,06,02,07,40,14.10
2007,06,02,07,41,14.20
2007,06,02,07,42,14.20
2007,06,02,07,43,14.20
2007,06,02,07,44,14.30
2007,06,02,07,45,14.40
2007,06,02,07,46,14.40
2007,06,02,07,47,14.50
2007,06,02,07,48,14.50
2007,06,02,07,49,14.50
2007,06,02,07,50,14.60
2007,06,02,07,51,14.60
2007,06,02,07,52,14.70
2007,06,02,07,53,14.70
2007,06,02,07,54,14.80
2007,06,02,07,55,14.80
2007,06,02,07,56,14.90
2007,06,02,07,57,15.00
2007,06,02,07,58,15.00
2007,06,02,07,59,15.10
2007,06,02,08,00,15.20
2007,06,02,08,01,15.30
2007,06,02,08,02,15.30
2007,06,02,08,03,15.40
2007,06,02,08,04,15.50
2007,06,02,08,05,15.60
2007,06,02,08,06,15.60
2007,06,02,08,07,15.70
2007,06,02,08,08,15.80
2007,06,02,08,09,15.80
2007,06,02,08,10,15.90
2007,06,02,08,11,16.00
2007,06,02,08,12,16.10
2007,06,02,08,13,16.10
2007,06,02,08,14,16.20
2007,06,02,08,15,16.30
2007,06,02,08,16,16.40
2007,06,02,08,17,16.40
2007,06,02,08,18,16.40
2007,06,02,08,19,16.50
2007,06,02,08,20,16.60
2007,06,02,08,21,16.70
2007,06,02,08,22,16.80
2007,06,02,08,23,16.90
2007,06,02,08,24,17.00
2007,06,02,08,25,17.00
2007,06,02,08,26,17.10
2007,06,02,08,27,17.20
2007,06,02,08,28,17.30
2007,06,02,08,29,17.30
2007,06,02,08,30,17.40
2007,06,02,08,31,17.50
2007,06,02,08,32,17.60
2007,06,02,08,33,17.70
2007,06,02,08,34,17.70
2007,06,02,08,35,17.70
2007,06,02,08,36,17.80
2007,06,02,08,37,17.90
2007,06,02,08,38,17.90
2007,06,02,08,39,17.90
2007,06,02,08,40,17.90
2007,06,02,08,41,17.90
2007,06,02,08,42,17.90
2007,06,02,08,43,18.00
2007,06,02,08,44,18.10
2007,06,02,08,45,18.10
2007,06,02,08,46,18.10
2007,06,02,08,47,18.10
2007,06,02,08,48,18.10
2007,06,02,08,49,18.20
2007,06,02,08,50,18.20
2007,06,02,08,51,18.20
2007,06,02,08,52,18.20
2007,06,02,08,53,18.20
2007,06,02,08,54,18.20
2007,06,02,08,55,18.20
2007,06,02,08,56,18.30
2007,06,02,08,57,18.40
2007,06,02,08,58,18.50
2007,06,02,08,59,18.50
2007,06,02,09,00,18.50
2007,06,02,09,01,18.40
2007,06,02,09,02,18.40
2007,06,02,09,03,18.50
2007,06,02,09,04,18.50
2007,06,02,09,05,18.50
2007,06,02,09,06,18.60
2007,06,02,09,07,18.50
2007,06,02,09,08,18.50
2007,06,02,09,09,18.60
2007,06,02,09,10,18.60
2007,06,02,09,11,18.60
2007,06,02,09,12,18.50
2007,06,02,09,13,18.50
2007,06,02,09,14,18.50
2007,06,02,09,15,18.50
2007,06,02,09,16,18.50
2007,06,02,09,17,18.60
2007,06,02,09,18,18.60
2007,06,02,09,19,18.60
2007,06,02,09,20,18.70
2007,06,02,09,21,18.70
2007,06,02,09,22,18.70
2007,06,02,09,23,18.70
2007,06,02,09,24,18.70
2007,06,02,09,25,18.80
2007,06,02,09,26,18.80
2007,06,02,09,27,18.80
2007,06,02,09,28,18.80
2007,06,02,09,29,18.80
2007,06,02,09,30,18.80
2007,06,02,09,31,18.80
2007,06,02,09,32,18.90
2007,06,02,09,33,18.90
2007,06,02,09,34,18.90
2007,06,02,09,35,18.80
2007,06,02,09,36,18.80
2007,06,02,09,37,18.70
2007,06,02,09,38,18.70
2007,06,02,09,39,18.70
2007,06,02,09,40,18.70
2007,06,02,09,41,18.60
2007,06,02,09,42,18.50
2007,06,02,09,43,18.40
2007,06,02,09,44,18.40
2007,06,02,09,45,18.30
2007,06,02,09,46,18.30
2007,06,02,09,47,18.30
2007,06,02,09,48,18.30
2007,06,02,09,49,18.30
2007,06,02,09,50,18.20
2007,06,02,09,51,18.20
2007,06,02,09,52,18.10
2007,06,02,09,53,18.10
2007,06,02,09,54,17.90
2007,06,02,09,55,17.90
2007,06,02,09,56,17.90
2007,06,02,09,57,17.90
2007,06,02,09,58,17.90
2007,06,02,09,59,17.90
2007,06,02,10,00,17.90
2007,06,02,10,01,17.90
2007,06,02,10,02,17.90
2007,06,02,10,03,18.00
2007,06,02,10,04,18.10
2007,06,02,10,05,18.10
2007,06,02,10,06,18.10
2007,06,02,10,07,18.10
2007,06,02,10,08,18.10
2007,06,02,10,09,18.10
2007,06,02,10,10,18.10
2007,06,02,10,11,18.10
2007,06,02,10,12,18.10
2007,06,02,10,13,18.10
2007,06,02,10,14,18.10
2007,06,02,10,15,18.10
2007,06,02,10,16,18.10
2007,06,02,10,17,18.10
2007,06,02,10,18,18.10
2007,06,02,10,19,18.20
2007,06,02,10,20,18.20
2007,06,02,10,21,18.30
2007,06,02,10,22,18.40
2007,06,02,10,23,18.50
2007,06,02,10,24,18.60
2007,06,02,10,25,18.70
2007,06,02,10,26,18.80
2007,06,02,10,27,18.90
2007,06,02,10,28,18.90
2007,06,02,10,29,19.00
2007,06,02,10,30,19.10
2007,06,02,10,31,19.10
2007,06,02,10,32,19.10
2007,06,02,10,33,19.20
2007,06,02,10,34,19.30
2007,06,02,10,35,19.40
2007,06,02,10,36,19.40
2007,06,02,10,37,19.50
2007,06,02,10,38,19.60
2007,06,02,10,39,19.70
2007,06,02,10,40,19.80
2007,06,02,10,41,19.90
2007,06,02,10,42,19.90
2007,06,02,10,43,19.90
2007,06,02,10,44,19.90
2007,06,02,10,45,19.90
2007,06,02,10,46,19.90
2007,06,02,10,47,20.00
2007,06,02,10,48,20.10
2007,06,02,10,49,20.10
2007,06,02,10,50,20.10
2007,06,02,10,51,20.20
2007,06,02,10,52,20.20
2007,06,02,10,53,20.20
2007,06,02,10,54,20.20
2007,06,02,10,55,20.30
2007,06,02,10,56,20.30
2007,06,02,10,57,20.40
2007,06,02,10,58,20.40
2007,06,02,10,59,20.50
2007,06,02,11,00,20.50
2007,06,02,11,01,20.50
2007,06,02,11,02,20.50
2007,06,02,11,03,20.40
2007,06,02,11,04,20.40
2007,06,02,11,05,20.40
2007,06,02,11,06,20.40
2007,06,02,11,07,20.50
2007,06,02,11,08,20.50
2007,06,02,11,09,20.50
2007,06,02,11,10,20.50
2007,06,02,11,11,20.40
2007,06,02,11,12,20.40
2007,06,02,11,13,20.40
2007,06,02,11,14,20.30
2007,06,02,11,15,20.40
2007,06,02,11,16,20.40
2007,06,02,11,17,20.40
2007,06,02,11,18,20.50
2007,06,02,11,19,20.50
2007,06,02,11,20,20.50
2007,06,02,11,21,20.50
2007,06,02,11,22,20.60
2007,06,02,11,23,20.70
2007,06,02,11,24,20.70
2007,06,02,11,25,20.70
2007,06,02,11,26,20.80
2007,06,02,11,27,20.90
2007,06,02,11,28,20.90
2007,06,02,11,29,21.00
2007,06,02,11,30,21.10
2007,06,02,11,31,21.20
2007,06,02,11,32,21.20
2007,06,02,11,33,21.10
2007,06,02,11,34,21.00
2007,06,02,11,35,20.90
2007,06,02,11,36,20.80
2007,06,02,11,37,20.70
2007,06,02,11,38,20.60
2007,06,02,11,39,20.50
2007,06,02,11,40,20.60
2007,06,02,11,41,20.70
2007,06,02,11,42,20.80
2007,06,02,11,43,20.80
2007,06,02,11,44,20.90
2007,06,02,11,45,21.00
2007,06,02,11,46,21.00
2007,06,02,11,47,21.00
2007,06,02,11,48,21.10
2007,06,02,11,49,21.10
2007,06,02,11,50,21.20
2007,06,02,11,51,21.20
2007,06,02,11,52,21.30
2007,06,02,11,53,21.50
2007,06,02,11,54,21.60
2007,06,02,11,55,21.60
2007,06,02,11,56,21.60
2007,06,02,11,57,21.60
2007,06,02,11,58,21.60
2007,06,02,11,59,21.70
2007,06,02,12,00,21.80
2007,06,02,12,01,21.80
2007,06,02,12,02,21.90
2007,06,02,12,03,22.00
2007,06,02,12,04,22.10
2007,06,02,12,05,22.20
2007,06,02,12,06,22.30
2007,06,02,12,07,22.30
2007,06,02,12,08,22.20
2007,06,02,12,09,22.10
2007,06,02,12,10,22.00
2007,06,02,12,11,21.90
2007,06,02,12,12,21.80
2007,06,02,12,13,21.90
2007,06,02,12,14,21.90
2007,06,02,12,15,21.90
2007,06,02,12,16,22.00
2007,06,02,12,17,22.10
2007,06,02,12,18,22.20
2007,06,02,12,19,22.30
2007,06,02,12,20,22.30
2007,06,02,12,21,22.40
2007,06,02,12,22,22.50
2007,06,02,12,23,22.60
2007,06,02,12,24,22.80
2007,06,02,12,25,22.90
2007,06,02,12,26,23.00
2007,06,02,12,27,23.10
2007,06,02,12,28,23.00
2007,06,02,12,29,23.00
2007,06,02,12,30,23.10
2007,06,02,12,31,23.20
2007,06,02,12,32,23.30
2007,06,02,12,33,23.30
2007,06,02,12,34,23.20
2007,06,02,12,35,23.10
2007,06,02,12,36,23.00
2007,06,02,12,37,22.90
2007,06,02,12,38,22.90
2007,06,02,12,39,22.90
2007,06,02,12,40,22.90
2007,06,02,12,41,22.80
2007,06,02,12,42,22.80
2007,06,02,12,43,22.70
2007,06,02,12,44,22.60
2007,06,02,12,45,22.60
2007,06,02,12,46,22.60
2007,06,02,12,47,22.60
2007,06,02,12,48,22.60
2007,06,02,12,49,22.60
2007,06,02,12,50,22.70
2007,06,02,12,51,22.70
2007,06,02,12,52,22.90
2007,06,02,12,53,23.00
2007,06,02,12,54,23.10
2007,06,02,12,55,23.20
2007,06,02,12,56,23.30
2007,06,02,12,57,23.40
2007,06,02,12,58,23.40
2007,06,02,12,59,23.40
2007,06,02,13,00,23.50
2007,06,02,13,01,23.60
2007,06,02,13,02,23.70
2007,06,02,13,03,23.70
2007,06,02,13,04,23.70
2007,06,02,13,05,23.70
2007,06,02,13,06,23.70
2007,06,02,13,07,23.70
2007,06,02,13,08,23.70
2007,06,02,13,09,23.70
2007,06,02,13,10,23.80
2007,06,02,13,11,23.80
2007,06,02,13,12,24.00
2007,06,02,13,13,24.10
2007,06,02,13,14,24.20
2007,06,02,13,15,24.30
2007,06,02,13,16,24.40
2007,06,02,13,17,24.60
2007,06,02,13,18,24.70
2007,06,02,13,19,24.80
2007,06,02,13,20,24.90
2007,06,02,13,21,24.90
2007,06,02,13,22,24.90
2007,06,02,13,23,24.70
2007,06,02,13,24,24.60
2007,06,02,13,25,24.60
2007,06,02,13,26,24.60
2007,06,02,13,27,24.60
2007,06,02,13,28,24.60
2007,06,02,13,29,24.60
2007,06,02,13,30,24.70
2007,06,02,13,31,24.80
2007,06,02,13,32,24.80
2007,06,02,13,33,24.70
2007,06,02,13,34,24.70
2007,06,02,13,35,24.70
2007,06,02,13,36,24.70
2007,06,02,13,37,24.80
2007,06,02,13,38,24.80
2007,06,02,13,39,24.80
2007,06,02,13,40,24.70
2007,06,02,13,41,24.60
2007,06,02,13,42,24.60
2007,06,02,13,43,24.60
2007,06,02,13,44,24.50
2007,06,02,13,45,24.50
2007,06,02,13,46,24.20
2007,06,02,13,47,23.90
2007,06,02,13,48,23.70
2007,06,02,13,49,23.50
2007,06,02,13,50,23.40
2007,06,02,13,51,23.30
2007,06,02,13,52,23.30
2007,06,02,13,53,23.30
2007,06,02,13,54,23.30
2007,06,02,13,55,23.30
2007,06,02,13,56,23.30
2007,06,02,13,57,23.20
2007,06,02,13,58,23.20
2007,06,02,13,59,23.10
2007,06,02,14,00,23.10
2007,06,02,14,01,23.10
2007,06,02,14,02,23.10
2007,06,02,14,03,23.10
2007,06,02,14,04,23.20
2007,06,02,14,05,23.30
2007,06,02,14,06,23.40
2007,06,02,14,07,23.50
2007,06,02,14,08,23.60
2007,06,02,14,09,23.60
2007,06,02,14,10,23.70
2007,06,02,14,11,23.70
2007,06,02,14,12,23.70
2007,06,02,14,13,23.70
2007,06,02,14,14,23.70
2007,06,02,14,15,23.80
2007,06,02,14,16,23.80
2007,06,02,14,17,23.90
2007,06,02,14,18,24.10
2007,06,02,14,19,24.20
2007,06,02,14,20,24.40
2007,06,02,14,21,24.60
2007,06,02,14,22,24.90
2007,06,02,14,23,24.90
2007,06,02,14,24,25.00
2007,06,02,14,25,25.10
2007,06,02,14,26,25.10
2007,06,02,14,27,25.10
2007,06,02,14,28,25.10
2007,06,02,14,29,25.10
2007,06,02,14,30,25.20
2007,06,02,14,31,25.30
2007,06,02,14,32,25.30
2007,06,02,14,33,25.40
2007,06,02,14,34,25.40
2007,06,02,14,35,25.30
2007,06,02,14,36,25.20
2007,06,02,14,37,25.30
2007,06,02,14,38,25.40
2007,06,02,14,39,25.40
2007,06,02,14,40,25.40
2007,06,02,14,41,25.30
2007,06,02,14,42,25.20
2007,06,02,14,43,25.10
2007,06,02,14,44,25.10
2007,06,02,14,45,25.00
2007,06,02,14,46,24.90
2007,06,02,14,47,24.90
2007,06,02,14,48,24.90
2007,06,02,14,49,24.90
2007,06,02,14,50,25.00
2007,06,02,14,51,25.00
2007,06,02,14,52,25.10
2007,06,02,14,53,25.20
2007,06,02,14,54,25.20
2007,06,02,14,55,25.10
2007,06,02,14,56,25.00
2007,06,02,14,57,25.00
2007,06,02,14,58,24.90
2007,06,02,14,59,24.80
2007,06,02,15,00,24.70
2007,06,02,15,01,24.70
2007,06,02,15,02,24.70
2007,06,02,15,03,24.80
2007,06,02,15,04,24.90
2007,06,02,15,05,25.00
2007,06,02,15,06,25.20
2007,06,02,15,07,25.30
2007,06,02,15,08,25.40
2007,06,02,15,09,25.50
2007,06,02,15,10,25.50
2007,06,02,15,11,25.60
2007,06,02,15,12,25.60
2007,06,02,15,13,25.60
2007,06,02,15,14,25.50
2007,06,02,15,15,25.50
2007,06,02,15,16,25.50
2007,06,02,15,17,25.50
2007,06,02,15,18,25.50
2007,06,02,15,19,25.50
2007,06,02,15,20,25.50
2007,06,02,15,21,25.60
2007,06,02,15,22,25.50
2007,06,02,15,23,25.50
2007,06,02,15,24,25.50
2007,06,02,15,25,25.50
2007,06,02,15,26,25.40
2007,06,02,15,27,25.50
2007,06,02,15,28,25.60
2007,06,02,15,29,25.60
2007,06,02,15,30,25.70
2007,06,02,15,31,25.70
2007,06,02,15,32,25.80
2007,06,02,15,33,25.80
2007,06,02,15,34,25.80
2007,06,02,15,35,25.80
2007,06,02,15,36,25.80
2007,06,02,15,37,25.80
2007,06,02,15,38,25.80
2007,06,02,15,39,25.70
2007,06,02,15,40,25.50
2007,06,02,15,41,25.40
2007,06,02,15,42,25.30
2007,06,02,15,43,25.10
2007,06,02,15,44,25.00
2007,06,02,15,45,24.90
2007,06,02,15,46,24.80
2007,06,02,15,47,24.70
2007,06,02,15,48,24.50
2007,06,02,15,49,24.50
2007,06,02,15,50,24.50
2007,06,02,15,51,24.60
2007,06,02,15,52,24.60
2007,06,02,15,53,24.70
2007,06,02,15,54,24.80
2007,06,02,15,55,24.90
2007,06,02,15,56,25.00
2007,06,02,15,57,25.20
2007,06,02,15,58,25.30
2007,06,02,15,59,25.40
2007,06,02,16,00,25.50
2007,06,02,16,01,25.50
2007,06,02,16,02,25.60
2007,06,02,16,03,25.60
2007,06,02,16,04,25.60
2007,06,02,16,05,25.60
2007,06,02,16,06,25.70
2007,06,02,16,07,25.80
2007,06,02,16,08,25.90
2007,06,02,16,09,26.00
2007,06,02,16,10,26.00
2007,06,02,16,11,26.10
2007,06,02,16,12,26.10
2007,06,02,16,13,26.10
2007,06,02,16,14,26.30
2007,06,02,16,15,26.30
2007,06,02,16,16,26.40
2007,06,02,16,17,26.30
2007,06,02,16,18,26.30
2007,06,02,16,19,26.20
2007,06,02,16,20,26.20
2007,06,02,16,21,26.20
2007,06,02,16,22,26.20
2007,06,02,16,23,26.10
2007,06,02,16,24,26.10
2007,06,02,16,25,25.90
2007,06,02,16,26,25.90
2007,06,02,16,27,25.90
2007,06,02,16,28,25.90
2007,06,02,16,29,25.80
2007,06,02,16,30,25.80
2007,06,02,16,31,25.90
2007,06,02,16,32,25.90
2007,06,02,16,33,25.90
2007,06,02,16,34,25.90
2007,06,02,16,35,25.90
2007,06,02,16,36,25.90
2007,06,02,16,37,25.90
2007,06,02,16,38,26.00
2007,06,02,16,39,26.10
2007,06,02,16,40,26.20
2007,06,02,16,41,26.20
2007,06,02,16,42,26.30
2007,06,02,16,43,26.40
2007,06,02,16,44,26.50
2007,06,02,16,45,26.60
2007,06,02,16,46,26.70
2007,06,02,16,47,26.80
2007,06,02,16,48,26.80
2007,06,02,16,49,26.90
2007,06,02,16,50,27.00
2007,06,02,16,51,27.10
2007,06,02,16,52,27.10
2007,06,02,16,53,27.20
2007,06,02,16,54,27.20
2007,06,02,16,55,27.20
2007,06,02,16,56,27.10
2007,06,02,16,57,26.90
2007,06,02,16,58,26.80
2007,06,02,16,59,26.70
2007,06,02,17,00,26.60
2007,06,02,17,01,26.60
2007,06,02,17,02,26.60
2007,06,02,17,03,26.60
2007,06,02,17,04,26.60
2007,06,02,17,05,26.70
2007,06,02,17,06,26.70
2007,06,02,17,07,26.80
2007,06,02,17,08,26.80
2007,06,02,17,09,26.90
2007,06,02,17,10,26.90
2007,06,02,17,11,27.10
2007,06,02,17,12,27.00
2007,06,02,17,13,26.90
2007,06,02,17,14,26.90
2007,06,02,17,15,26.80
2007,06,02,17,16,26.70
2007,06,02,17,17,26.60
2007,06,02,17,18,26.50
2007,06,02,17,19,26.40